Location: West Cummington
(42.4920°N, 72.9680°W)
Time: 19:06:18
(UTC-04:00)

Daily predictions for brighter satellites

Satellite Brightness Start Highest point End
(mag) Time Altitude Azimuth Time Altitude Azimuth Time Altitude Azimuth
BREEZE-M DEB (TANK) 3.9 19:47:00 10° SW 19:50:53 55° SE 20:04:33 10° ENE
Cosmos 2154 Rocket 4.4 19:58:41 10° SSE 20:04:29 41° E 20:10:17 10° NNE
Thor Agena Rocket 3.9 19:59:38 10° NNE 20:04:39 45° E 20:09:41 10° S
Cosmos 1437 2.7 20:01:52 10° S 20:05:00 63° E 20:08:10 10° NNE
Cosmos 44 Rocket 3.2 20:02:09 10° SSW 20:06:50 65° ESE 20:11:41 10° NE
Cosmos 2184 Rocket 4.0 20:01:59 10° S 20:08:08 79° E 20:14:19 10° N
Cosmos 2221 2.6 20:04:09 10° S 20:08:25 83° W 20:12:42 10° N
Cosmos 1346 Rocket 3.4 20:06:17 10° SSW 20:10:19 66° W 20:14:25 10° N
Cosmos 1300 3.0 20:10:30 10° SSW 20:14:18 72° W 20:18:09 10° N
Cosmos 2360 Rocket 2.7 20:10:26 10° SSW 20:16:02 68° WNW 20:21:40 10° NNE
Cosmos 1805 Rocket 3.5 20:12:55 10° N 20:17:17 72° E 20:21:36 10° SSE
SJ 16-02 4.5 20:15:05 10° WSW 20:18:15 19° WNW 20:21:27 10° NNW
NOSS 2-1 (C) 3.3 20:15:12 10° SSW 20:18:41 50° ESE 20:22:29 10° NE
OE (NEXTSAT) 4.4 20:16:08 10° SW 20:19:39 61° SSE 20:23:10 10° ENE
NOSS 2-1 (D) 3.2 20:16:09 10° SSW 20:19:39 52° ESE 20:23:29 10° NE
Resurs 01 Rocket 2.0 20:16:30 10° SE 20:20:44 47° ENE 20:25:00 10° N
Cosmos 2333 Rocket 2.8 20:17:02 10° SSE 20:22:04 34° ESE 20:27:05 10° NE
ATLAS 2AS CENTAUR R/B 3.4 20:16:27 10° NNW 20:24:09 48° NE 20:30:50 12° ESE
Cosmos 2341 Rocket 4.5 20:18:48 10° SSE 20:24:39 41° E 20:30:30 10° NNE
Cosmos 1328 Rocket 4.4 20:21:30 10° SSE 20:25:19 30° E 20:29:10 10° NNE
CZ-2D R/B 3.8 20:23:00 10° S 20:26:45 61° W 20:30:32 10° NNW
COSMOS 2428 2.7 20:21:32 10° S 20:27:11 64° ESE 20:32:52 10° NNE
Meteor 2-15 4.4 20:21:57 10° N 20:28:07 74° E 20:34:12 10° SSE
Spot 2 Rocket 3.9 20:24:20 10° SE 20:29:12 47° ENE 20:34:03 10° N
Cosmos 2333 4.1 20:24:53 10° SSW 20:30:30 71° ESE 20:36:07 10° NNE
Cosmos 1844 Rocket 2.7 20:29:18 10° NNW 20:35:00 83° ENE 20:40:40 10° SSE
Cosmos 1844 3.8 20:29:25 10° NNW 20:35:05 66° ENE 20:40:34 11° SE
Meteor 2-21 4.4 20:30:55 10° S 20:37:01 76° E 20:43:12 10° NNE
SJ-11-01 4.3 20:33:40 10° SSE 20:38:15 61° ENE 20:42:52 10° N
Cosmos 1455 2.6 20:35:02 10° SSE 20:38:39 42° E 20:42:18 10° NNE
Cosmos 1892 2.6 20:39:43 10° N 20:43:38 76° E 20:47:30 10° SSE
Cosmos 2237 Rocket 2.9 20:39:14 10° SSE 20:44:00 29° ESE 20:48:47 10° NE
Cosmos 2219 Rocket 2.2 20:39:20 10° S 20:44:54 62° ESE 20:50:29 10° NNE
ERS-2 3.2 20:41:36 10° S 20:45:08 46° W 20:48:41 10° NNW
Lacrosse 5 4.4 20:44:47 10° NW 20:47:49 16° N 20:50:51 10° NNE
BREEZE-M DEB (TANK) 2.5 20:43:35 10° WNW 20:48:19 66° NNE 20:49:38 25° E
Cosmos 1408 3.7 20:46:29 10° NNE 20:49:38 27° ENE 20:50:50 22° ESE
NOSS 2-1 (E) 3.2 20:46:22 10° SW 20:49:59 82° NW 20:54:05 10° NE
NOSS 0 Rocket 4.2 20:45:44 10° S 20:51:31 44° ESE 20:57:21 10° NE
Cosmos 2278 Rocket 2.8 20:46:41 10° NNW 20:52:02 40° ENE 20:55:30 20° ESE
ATLAS CENTAUR R/B 1.5 20:48:51 10° S 20:52:14 37° ESE 20:55:46 10° NE
Timation 1 Rocket 4.4 20:50:35 10° NNW 20:56:34 81° WSW 21:01:55 13° SSE
SL-8 Rocket 4.3 20:51:26 10° SSE 20:57:25 48° E 21:03:24 10° NNE
Cosmos 1666 Rocket 3.9 20:53:09 10° NNW 20:57:37 68° W 21:02:02 10° S
USA 186 3.1 20:55:59 10° SSW 20:57:55 25° W 20:59:51 10° NW
NOAA 11 4.2 20:53:29 11° SSE 20:58:41 74° ENE 21:04:12 10° N
Genesis I 3.8 20:55:09 10° NNW 20:59:06 46° NE 21:01:00 26° ESE
Resurs 1-3 4.0 20:54:49 10° S 20:59:09 65° WSW 21:03:33 10° NNW
H-2A R/B 3.0 20:58:30 21° ESE 21:00:44 29° ENE 21:04:59 10° N
NOSS 3-3 (A) 3.9 20:55:46 10° SSW 21:01:46 78° ESE 21:08:23 10° NE
NOSS 3-3 (C) 3.9 20:55:53 10° SSW 21:01:53 77° ESE 21:08:29 10° NE
OAO 2 Rocket 4.3 20:58:06 10° WSW 21:02:40 32° S 21:04:58 22° SSE
Cosmos 1933 Rocket 3.8 20:59:25 10° N 21:03:40 48° ENE 21:05:47 26° SE
YAOGAN 6 4.0 21:03:00 10° SSW 21:06:21 37° W 21:09:45 10° NNW
USA 267 3.8 21:05:06 10° ENE 21:10:49 32° SE 21:16:31 10° S
ERS-1 Rocket 3.8 21:10:18 26° ESE 21:12:09 33° ENE 21:16:38 10° N
Sich 1 4.3 21:08:40 10° NNW 21:12:41 40° W 21:16:39 10° SSW
Cosmos 1151 Rocket 2.9 21:13:26 16° S 21:16:45 71° E 21:21:01 10° NNE
Cosmos 220 Rocket 3.9 21:12:39 10° NNW 21:17:02 86° WSW 21:19:12 29° SSE
Cosmos 1825 2.0 21:23:49 10° N 21:27:37 72° E 21:28:24 52° SSE
Meteor 2-3 Rocket 4.2 21:24:03 10° NNW 21:29:32 58° W 21:34:38 12° S
Cosmos 864 Rocket 4.5 21:25:49 21° SSE 21:29:52 60° E 21:35:54 10° NNE
Cosmos 2098 Rocket 3.2 21:31:01 38° SSE 21:32:33 57° E 21:36:30 10° NNE
SL-16 R/B 3.1 21:33:18 29° E 21:33:18 29° E 21:37:26 10° NE
Cosmos 2056 Rocket 3.9 21:32:53 38° SE 21:34:02 43° ESE 21:39:08 10° NNE
Cosmos 1869 3.2 21:34:42 54° SSE 21:35:26 69° E 21:39:28 10° NNE
Cosmos 2228 Rocket 3.3 21:32:02 12° SSW 21:36:06 67° W 21:40:29 10° N
Helios 1B rocket 4.3 21:36:29 10° NE 21:38:01 18° ENE 21:38:01 18° ENE
SL-8 R/B 3.6 21:35:47 10° SW 21:40:29 60° SSE 21:41:34 47° E
Cosmos 1515 Rocket 4.1 21:37:19 11° SSW 21:41:37 58° W 21:46:02 10° N
Cosmos 405 3.8 21:42:11 10° N 21:44:48 39° NE 21:44:48 39° NE
ARGOS 3.1 21:44:34 36° S 21:46:50 85° WSW 21:52:14 10° NNW
GEOS 3 Rocket 3.5 21:44:15 10° NE 21:49:36 69° SE 21:54:50 10° SSW
Helios 1A 3.2 21:49:42 52° ENE 21:49:42 52° ENE 21:53:44 10° N
Cosmos 1624 Rocket 3.9 21:50:09 48° SSE 21:51:25 65° ESE 21:56:33 10° NNE
BREEZE-M DEB (TANK) 3.6 21:49:12 10° WNW 21:51:02 33° NW 21:51:02 33° NW
SL-08 RB Rocket 3.5 21:52:57 62° SSE 21:53:42 89° SW 21:58:13 10° NNW
MetOp-B 4.1 21:51:53 42° S 21:53:48 83° WSW 21:59:11 10° NNW
Cosmos 1190 Rocket 4.0 21:50:22 10° NNW 21:55:37 61° ENE 21:56:23 55° ESE
Resurs 01 Rocket 4.2 21:54:34 10° SW 21:57:26 17° W 22:00:20 10° NW
Cosmos 1980 4.1 21:54:09 10° SW 21:59:46 63° WNW 22:05:27 10° NNE
Cosmos 2297 3.8 21:56:30 10° NNW 22:02:06 57° ENE 22:02:58 51° E
Cosmos 1727 Rocket 3.9 21:56:39 10° N 22:02:51 90° W 22:04:57 45° S
Landsat 7 4.3 22:03:40 44° ENE 22:03:40 44° ENE 22:07:59 10° N
BREEZE-M DEB (TANK) 3.8 22:00:14 10° WNW 22:04:33 26° N 22:05:13 24° NNE
Cosmos 2333 Rocket 3.7 22:01:02 10° SW 22:06:15 37° WNW 22:11:28 10° N
Cosmos 1140 Rocket 4.2 22:01:32 10° N 22:06:23 38° ENE 22:06:25 38° ENE
Cosmos 1821 Rocket 4.3 22:08:27 45° E 22:08:37 45° E 22:14:34 10° NNE
Cosmos 2369 Rocket 4.0 22:08:41 10° N 22:12:25 17° NE 22:13:27 17° ENE
Meteor 2-10 Rocket 3.9 22:11:14 33° SSW 22:13:54 73° WNW 22:19:44 10° N
ATLAS 2AS CENTAUR R/B 3.6 22:07:48 10° NW 22:15:08 45° WSW 22:18:17 29° SSW
DMSP B5D2-2 3.9 22:12:40 10° NNE 22:17:57 78° ESE 22:18:05 77° SE
Cosmos 1862 3.9 22:15:12 10° N 22:18:24 54° NNW 22:18:24 54° NNW
Spot 1 4.5 22:20:20 65° NE 22:20:20 65° NE 22:24:50 10° N
Terra 2.6 22:21:54 41° NE 22:21:54 41° NE 22:25:41 10° N
Cosmos 2237 Rocket 3.4 22:22:34 10° SW 22:27:51 41° WNW 22:33:12 10° NNE
SPOT 5 3.0 22:30:51 67° WNW 22:30:51 67° WNW 22:34:58 10° NNW
ATLAS CENTAUR R/B 3.8 22:28:30 10° W 22:31:21 20° NW 22:34:18 10° N
SPOT 1/Viking Rocket 3.5 22:31:21 79° WSW 22:31:26 79° WSW 22:36:41 10° NNW
Lacrosse 5 3.8 22:28:38 10° NNW 22:32:29 21° NNE 22:34:13 18° NE
Cosmos 2278 Rocket 3.5 22:31:03 10° NW 22:35:57 30° WSW 22:37:23 27° SW
CZ-4C R/B 4.2 22:41:44 15° NE 22:41:44 15° NE 22:42:51 10° NE
CZ-2C R/B 4.4 22:33:07 10° NE 22:35:16 20° NE 22:35:16 20° NE
Cosmos 405 Rocket 4.4 22:41:01 32° NNW 22:41:01 32° NNW 22:43:21 10° N
H-2A R/B 3.2 22:39:07 32° WSW 22:40:02 34° W 22:44:36 10° NNW
NOSS 3-4 (A) 3.7 22:38:38 10° NW 22:45:42 79° WSW 22:46:43 67° S
NOSS 3-4 (C) 3.7 22:38:44 10° NW 22:45:49 79° WSW 22:46:49 68° S
Cosmos 407 Rocket 4.2 22:43:21 10° NNW 22:48:01 46° W 22:48:01 46° W
ATLAS 5 CENTAUR R/B 3.8 22:43:37 10° NNW 22:48:27 26° NE 22:49:40 25° ENE
ERS-1 Rocket 4.4 22:50:18 29° WSW 22:50:55 29° W 22:55:18 10° NW
USA 267 3.3 22:47:39 10° NE 22:54:10 75° NW 23:00:41 10° WSW
Cosmos 614 Rocket 4.4 22:52:32 10° NNW 22:56:51 59° NW 22:56:51 59° NW
Cosmos 2344 3.5 23:10:54 51° SW 23:13:10 85° NW 23:21:39 10° NE
Helios 1B rocket 4.5 23:11:39 10° N 23:14:23 26° NW 23:14:23 26° NW
SL-16 R/B 3.3 23:15:04 35° W 23:16:31 41° WNW 23:21:52 10° NNE
Cosmos 1452 Rocket 4.4 23:18:16 47° NNW 23:18:16 47° NNW 23:22:17 10° NNE
USA 234 3.2 23:27:52 75° NNE 23:27:52 75° NNE 23:34:16 10° NW
Cosmos 1934 Rocket 4.4 23:31:58 57° WNW 23:31:58 57° WNW 23:37:29 10° N
Cosmos 1943 Rocket 3.3 23:28:12 10° NNW 23:32:07 38° NNE 23:32:07 38° NNE
CZ-2C R/B 4.4 23:39:38 31° NW 23:39:38 31° NW 23:42:20 10° NNW
SeaSat 1 4.1 23:55:37 30° N 23:55:37 30° N 23:58:28 10° NNW
